Location: Complexul Astronomic Baia Mare
(47.6577°N, 23.5639°E)
Time: 00:03:25
(UTC+02:00)

ISS - Pass Details

Date: 05 March 2017
Orbit: 399 x 409 km, 51.6° (Epoch: 25 March)

Event Time Altitude Azimuth Distance (km) Brightness Sun altitude
Exits shadow 05:05:03 16° 168° (SSE) 1,177 -1.5 -19.9°
Maximum altitude 05:06:20 19° 138° (SE) 1,042 -1.5 -19.7°
Drops below altitude 10° 05:08:46 10° 91° (E) 1,477 0.2 -19.2°
Sets 05:11:15 0° 73° (ENE) 2,343 1.7 -18.8°
